STARLINK-1805, 46705

Orbit data source: Space-Track

STARLINK-1805, 46705 is a payload satellite owned by SpaceX/Seattle (US) in LEO that was launched on Sun, 18 Oct 2020 UTC via an FALCON 9 launch vehicle from the Air Force Eastern Test Range (AFETR). Payload-class satellites include a variety of spacecraft equipped with specific instruments for various scientific and technological missions. These include communications satellites like Starlink; space stations such as the ISS; scientific satellites like the Hubble; Earth observation satellites from companies like Planet Labs, Umbra, and HawkEye 360; GPS; miniature CubeSats for education and research; and military/defense satellites.

Loading next visibility...
Identifier
46705, 2020-073AM
Orbit
LEO
Country
Flag of USUS
Related business
Manufacturer
SpaceX/Seattle
Mission
Partially operational Commercial Communications
Bus & Motor
STARLINK, Unknown motor
Mass
260 kg wet, ~248 kg dry
Launch date (UTC)
2020-10-18 (5 years ago)
Launch vehicle
FALCON 9
Launch site
Air Force Eastern Test Range (AFETR)
Object type
Payload
Rocket body
Debris
Shape & HBR
Box + 1 Pan, 10.1 m
Radar Cross Section
13.562 m², Large (>1 m²)

Expand to show TLE details & history
Last TLE update: 11 hours ago

TLE from 11 hours ago
0 STARLINK-1805
1 46705U 20073AM  26100.38479029  .00114957  00000-0  14570-2 0  9991
2 46705  53.0477  90.3383 0005678  34.7144 325.4237 15.58607416302032
Epoch: 2026-04-10T09:14Z
TLE epoch observation values (Epoch: 2026-04-10T09:14:05.881Z)
Latitude
-0.00002°
Longitude
113.19457°
Altitude
389.421 km
Speed
7.68 km/s
True Right ascension
06h 01m 21s
True Declination
0° 00' 00"
Sunlit
Object was in daylight at epoch
Visualization orbit readout
Latitude
Unknown
Longitude
Unknown
Altitude
Unknown
Speed
Unknown
Apparent Right ascension
Unknown
Apparent Declination
Unknown
Sunlit
N/A
Visualization observer readout
Local Sidereal Time
02:55:34
Azimuth
Unknown
Elevation
Unknown
Doppler factor
Unknown
Orbital elements
Apogee altitude
395.808 km
Perigee altitude
388.12 km
Semi-major axis
6,770.101 km
Eccentricity
0.00057
Inclination
53.0477°
RAAN
90.3383°
Arg. of periapsis
34.7144°
True anomaly
325.38675°
Mean anomaly
325.4237°
Eccentric anomaly
325.40523°
Mean motion
3.89628 °/min
Orbital period
92.4 mins
BSTAR
0.001457
Loading maneuver chart data...
Computing Atmospheric mass density...

Documentation

Showing up to 5 results
|